Regional Weather Roundup
Issued by NWS

Home | Current Version | Previous Version | Text Only | Print | Product List | Glossary Off
Versions: 1 2 3 4 5 6 7 8 9 10 11 12 13 14 15 16 17 18 19 20 21 22 23 24 25 26 27 28 29 30 31 32 33 34 35 36 37 38 39 40 41 42 43 44 45 46 47 48 49 50

000
ASUS43 KFSD 011402
RWRSD

WEATHER ROUNDUP FOR SOUTH DAKOTA
NATIONAL WEATHER SERVICE SIOUX FALLS SD
900 AM CDT FRI AUG 01 2014

NOTE: "FAIR" INDICATES FEW OR NO CLOUDS BELOW 12,000 FEET WITH NO
SIGNIFICANT WEATHER AND/OR OBSTRUCTIONS TO VISIBILITY.


SDZ001>005-009-010-012>017-011500-
NORTHWEST AND NORTH CENTRAL SOUTH DAKOTA

CITY           SKY/WX    TMP DP  RH WIND       PRES   REMARKS
BUFFALO          N/A     66  51  58 NE5       30.02S
FAITH            N/A     70  56  61 S13       30.06S
MOBRIDGE       SUNNY     70  62  76 S12       30.05S
$$

SDZ012>016-024>037-041>051-057-063-072>074-011500-
SOUTHWEST AND SOUTH CENTRAL SOUTH DAKOTA

CITY           SKY/WX    TMP DP  RH WIND       PRES   REMARKS
RAPID CTY ARPT SUNNY     71  55  56 CALM      30.11R
PIERRE         SUNNY     69  62  78 SE9       30.06S
CUSTER         SUNNY     68  46  45 W6        30.27S
ELLSWORTH AFB  SUNNY     74  53  47 S6        30.10S
PHILIP         SUNNY     69  51  52 CALM      30.08R
PINE RIDGE     SUNNY     62  53  72 CALM      30.15S
WINNER         FAIR      75  61  61 S8        30.09S
$$

SDZ004>011-016>023-039-040-011500-
NORTHEAST SOUTH DAKOTA

CITY           SKY/WX    TMP DP  RH WIND       PRES   REMARKS
ABERDEEN       SUNNY     65  58  78 CALM      30.09R
WATERTOWN      SUNNY     67  60  78 CALM      30.10S
SISSETON         N/A     69  62  78 NE3       30.07S
$$

SDZ017-020-022-023-036>040-048>070-011500-
SOUTHEAST SOUTH DAKOTA

CITY           SKY/WX    TMP DP  RH WIND       PRES   REMARKS
SIOUX FALLS    MOSUNNY   67  61  81 CALM      30.11S
HURON          SUNNY     65  59  81 SE3       30.09R
CHAMBERLAIN    SUNNY     67  62  83 SE3       30.09S
MITCHELL       SUNNY     67  62  84 CALM      30.10S
YANKTON        MOSUNNY   63  61  94 CALM      30.11S
$$

ABBREVIATIONS USED IN REMARKS
   TC - TEMPERATURE IN CELSIUS
  WCI - WIND CHILL INDEX
   HX - HEAT INDEX
  VSB - VISIBILITY




USA.gov is the U.S. government's official web portal to all federal, state and local government web resources and services.